Zurück zum Katalog

STARLINK-5570

AktivKommunikationVLEO
NORAD 55433·PAYLOAD·🇺🇸 United States

Gestartet Jan 31, 2023 von Vandenberg Space Force Base

Loading…

Nächste Überflüge (nächste 24 Stunden)

TLE

AktuellSource: CelesTrak SupGP

Epoche: Sep 14, 2026, 21:18 UTC

1 55433C 23014AU  26257.88798611 -.00052119  00000+0 -43687-2 0  2576
2 55433  70.0020 347.3167 0003256 271.5285   6.2665 14.98347888    14

Verfolge STARLINK-5570 in Echtzeit mit AllMySat

Download on the App Store